Regional Weather Roundup
Issued by NWS Nashville, TN

Home | Current Version | Previous Version | Text Only | Print | Product List | Glossary On
Versions: 1 2 3 4 5 6 7 8 9 10 11 12 13 14 15 16 17 18 19 20 21 22 23 24 25 26 27 28
000
ASUS44 KOHX 271810
RWROHX
MIDDLE TENNESSEE HOURLY WEATHER ROUNDUP
NATIONAL WEATHER SERVICE NASHVILLE TN
100 PM CDT THU APR 27 2017

NOTE: "FAIR" INDICATES FEW OR NO CLOUDS BELOW 12,000 FEET WITH
NO SIGNIFICANT WEATHER AND/OR OBSTRUCTIONS TO VISIBILITY.

* THESE REPORTS ARE NOT UNDER NWS QUALITY CONTROL AND MAY NOT
  REPORT WEATHER SUCH AS PRECIPITATION AND FOG.


TNZ005>011-023>034-057-059-062>066-078-080-271900
...NORTHERN MIDDLE TENNESSEE...

CITY           SKY/WX    TMP DP  RH WIND       PRES   REMARKS
CLARKSVILLE    CLOUDY    56  48  74 W9        29.82R
CROSSVILLE     MOSUNNY   70  56  61 W13G23    29.79S
GALLATIN       PTSUNNY   68  55  64 SW8G15    29.81R
DICKSON        MOSUNNY   57  50  78 W9        29.82R
LEBANON        PTSUNNY   68  56  65 W13       29.77R
NASHVILLE      PTSUNNY   67  54  63 W9G20     29.80R
PORTLAND       PTSUNNY   66  55  68 W9G17     29.78R
SMYRNA         PTSUNNY   69  56  62 SW15G23   29.80R
SPARTA         MOSUNNY   73  57  56 SW14G20   29.75S
SPRINGFIELD    CLOUDY    59  54  82 W14       29.80R
WEST NASHVILLE PTSUNNY   64  54  68 W9        29.80R
$$
TNZ056-058-060-061-075>077-079-093>097-271900
...SOUTHERN MIDDLE TENNESSEE...

CITY           SKY/WX    TMP DP  RH WIND       PRES   REMARKS
COLUMBIA         N/A     66  64  94 W7        29.80S
FAYETTEVILLE   MOSUNNY   72  61  68 W10G18    29.78F
MCMINNVILLE    PTSUNNY   72  57  60 W13       29.77S
MURFREESBORO   MOSUNNY   71  55  56 SW9       29.78S
SHELBYVILLE    PTSUNNY   72  61  68 W13       29.80R
TULLAHOMA      PTSUNNY   72  55  56 SW13      29.79S
WINCHESTER     PTSUNNY   73  59  60 VRB5      29.79S
$$


...KEY TO REMARKS...
VSB - VISIBILITY IN MILES
WCI - WIND CHILL INDEX
HX  - HEAT INDEX





USA.gov is the U.S. government's official web portal to all federal, state and local government web resources and services.